Starlink 2144

operational
NORAD ID: 47734 Int'l Des: 2021-017 Owner: SPXS Country: US Constellation: starlink
LEOCIRCULARSTARLINK_TYPE

Starlink 2144について

説明を読み込み中...

リアルタイム位置

3D地球を読み込み中...

次回通過

高度履歴

Altitude vs Time

uPlot chart will show altitude changes over time

軌道要素

1 47734U 21017N 25303.63506656 .00000696 00000-0 65591-4 0 9997
2 47734 53.0549 75.4523 0001197 88.8731 271.2395 15.06391604258146
Epoch: Oct 30, 2025 • Age: 19 hours

現在のステータス

高度 555.8 km
速度 7.58 km/s
衛星直下点 -27.18°S, 143.59°W
打ち上げ日 Mar 4, 2021
運用期間 4.6 years
タイプ internet

技術仕様

分類 Payload
質量 260.00 kg
乾燥質量 248.00 kg
総質量 260.00 kg
長さ 0.20 m
直径 2.80 m
スパン 9.00 m
形状 Box + pan
製造者 SPXS
バスタイプ Starlink
フェーズステータス In Orbit
所有者/国 SPXS/US

大規模コンステレーション

Loading constellations...